Regional Weather Roundup
Issued by NWS Kansas City/Pleasant Hill, MO

Home | Current Version | Previous Version | Graphics & Text | Print | Product List | Glossary Off
Versions: 1 2 3 4 5 6 7 8 9 10 11 12 13 14 15 16 17 18 19 20 21 22 23 24 25 26 27 28 29 30 31 32 33 34 35 36 37 38 39 40 41 42 43 44 45 46 47 48 49 50

000
ASUS43 KEAX 241404
RWREAX

WEATHER ROUNDUP FOR EASTERN KANSAS AND NORTHWEST MISSOURI
NATIONAL WEATHER SERVICE KANSAS CITY/PLEASANT HILL MO
900 AM CDT FRI OCT 24 2014

KSZ040-057-103>105-MOZ028-029-037-043-241500-
...KANSAS CITY METROPOLITAN AREA...

CITY           SKY/WX    TMP DP  RH WIND       PRES   REMARKS
K.C. INTL      PTSUNNY   57  57 100 S10       30.05R FOG
K.C. DOWNTOWN  PTSUNNY   58  56  93 S6        30.05S FOG
LEES SUMMIT    MOSUNNY   56  54  93 S7        30.07S
OLATHE - IXD   FOG       56  55  97 S9        30.06S VSB 1
OLATHE - OJC   PTSUNNY   56  56 100 S7        30.06R FOG
LAWRENCE       CLOUDY    57  56  96 SW6       30.05R FOG

$$

MOZ001>008-011>017-020>025-030>033-038>040-044>046-053-054-241500-
...NORTHERN AND CENTRAL MISSOURI...

CITY           SKY/WX    TMP DP  RH WIND       PRES   REMARKS
ST. JOSEPH     CLOUDY    58  58 100 S6        30.03S FOG
MOSBY          CLOUDY    55  55 100 S5        30.06R FOG
WHITEMAN AFB   CLOUDY    57  55  92 S9        30.09R
CLINTON        PTSUNNY   55  55 100 CALM      30.11R FOG
SEDALIA        MOSUNNY   59  55  87 S7        30.11R
WARSAW         NOT AVBL
MARSHALL       CLOUDY    61  61 100 S6        30.10R FOG
CHILLICOTHE      N/A     58  57  97 S6        30.07R
MOBERLY        FOG       57  55  94 S6        30.10R VSB 1/4
KIRKSVILLE     FOG       56  56 100 S8        30.07F VSB 1/4

$$

MOZ041-047>049-056>058-063>065-088>090-097-241500-
...EASTERN AND SOUTHERN MISSOURI...

CITY           SKY/WX    TMP DP  RH WIND       PRES   REMARKS
ST. LOUIS INTL CLOUDY    58  52  80 W7        30.12R
SPIRIT OF STL  PTSUNNY   54  52  93 CALM      30.12R
COLUMBIA       CLOUDY    57  56  96 S5        30.11S FOG
JEFFERSON CITY CLOUDY    53  52  96 SE3       30.12R FOG
MEXICO         FOG      N/A N/A N/A SW5       30.11R VSB 1/4
ROLLA          PTSUNNY   55  54  96 SW6       30.12R FOG
LEBANON        FOG       54  52  94 CALM      30.14R VSB<1/4
OSAGE BEACH    SUNNY     61  55  82 S5        30.12R
SPRINGFIELD    CLOUDY    54  51  90 S5        30.12S
BRANSON        MOSUNNY   57  55  94 CALM      30.15R
NEVADA         MOSUNNY   55  54  94 S9        30.11R
JOPLIN         SUNNY     57  54  89 S8        30.12S
WEST PLAINS    PTSUNNY   51  48  89 CALM      30.16R

$$

IAZ060-094-KSZ022-034>040-054-083-096-NEZ052-066-093-241500-
...KANSAS...SOUTHEAST NEBRASKA AND IOWA...

CITY           SKY/WX    TMP DP  RH WIND       PRES   REMARKS
TOPEKA         CLOUDY    60  59  96 S6        30.04R FOG
MANHATTAN      PTSUNNY   60  58  92 SW7       30.01S FOG
EMPORIA        MOSUNNY   57  57 100 S8        30.06R FOG
CHANUTE        MOSUNNY   58  56  93 S9        30.09R
WICHITA        MOSUNNY   59  57  93 S9        30.07R FOG
OMAHA          CLOUDY    60  57  89 S14       29.93S FOG
LINCOLN        CLOUDY    60  57  89 S6        29.95R FOG
FALLS CITY     CLOUDY    59  57  93 S9        29.99S FOG
LAMONI         FOG       57  57 100 S8        30.01F VSB 1/4
DES MOINES     FOG       59  58  96 S10       29.98S VSB 1/8

$$




USA.gov is the U.S. government's official web portal to all federal, state and local government web resources and services.